Погода в Софийске

Россия / Хабаровский край     51°34′15″N   139°50′51″E
темп.,
°C
ветер,
м/с
пор.,
м/с
влажн.,
%
обл.,
%
осадки,
мм/ч
давл.,
гПа
погр.,
м
17 июня, чт
чт1701:00+18ююв22810 0.0 100223
04:00+17ю22825 0.0 100314
07:00+21ююз226992 0.0 1003148
10:00+26зюз3654100 0.0 10031099
13:00+30з464431 0.0 10021718
16:00+30зсз3338100 0.0 10011521
19:00+26юв2260100 0.0 100256
22:00+17юв2381100 0.0 100445
18 июня, пт
пт1801:00+12вюв2386100 0.0 100571
04:00+10вюв2395100 0.0 100682
07:00+12вюв2381100 0.0 1006292
10:00+19вюв2454100 0.0 1006628
13:00+24вюв354384 0.0 1005875
16:00+24вюв57440 0.0 1005885
19:00+20вюв46630 0.0 1006669
22:00+12вюв34835 0.0 100883
19 июня, сб
сб1901:00+9всв22865 0.0 100949
04:00+7всв229127 0.0 101056
07:00+9всв337296 0.0 1011464
10:00+13всв2456100 0.0 1011736
13:00+18вюв3443100 0.0 10101085
16:00+20вюв244170 0.0 10091274
19:00+18вюв355295 0.0 1009777
22:00+11юв3368100 0.0 101040
20 июня, вс
вс2001:00+9вюв226798 0.0 101133
04:00+7юв11774 0.0 101113
07:00+12зюз01610 0.0 1011209
10:00+18св12440 0.0 1010773
13:00+23св23361 0.0 10081358
16:00+23всв22355 0.0 10071544
19:00+21юв125095 0.0 1007109
22:00+14ююв116165 0.0 100812
21 июня, пн
пн2101:00+12ююв016396 0.0 100710
04:00+12зсз116698 0.0 100710
07:00+14с1162100 0.0 1008188
10:00+15в2262100 0.1 1009498
13:00+19св235196 0.0 10081039
16:00+20св3348100 0.0 1007867
19:00+18в235777 0.0 1007407
22:00+13юв3379100 0.0 100755